Tracking 27112 objects as of 27-Mar-2023
HD Live streaming from Space Station
objects crossing your sky now

STARLINK-2481

Track STARLINK-2481 now!
10-day predictions
STARLINK-2481 is classified as:


NORAD ID: 48138
Int'l Code: 2021-027AY
Perigee: 553.7 km
Apogee: 555.1 km
Inclination: 53.1 °
Period: 95.6 minutes
Semi major axis: 6925 km
RCS: Unknown
Launch date: April 7, 2021
Source: United States (US)
Launch site: AIR FORCE EASTERN TEST RANGE (AFETR)
Your satellite tracking list
Your tracking list is empty




NASA's NSSDC Master Catalog

Two Line Element Set (TLE):
1 48138U 21027AY  23085.91486151  .00029245  00000-0  19754-2 0  9999
2 48138  53.0553 334.4262 0001042  91.0133 269.0975 15.06376012109824
Source of the keplerian elements: AFSPC